Location: Unspecified
(42.2730°N, 83.7130°W)
Time: 14:28:15
(UTC+00:00)

SWAS - Pass Details

Date: 14 December 2025
Orbit: 539 x 544 km, 69.9° (Epoch: 17 January)

Event Time Altitude Azimuth Distance (km) Brightness Sun altitude
Rises 23:48:26 0° 199° (SSW) 2,694 8.3 -18.7°
Reaches altitude 10° 23:50:37 10° 197° (SSW) 1,807 7.3 -19.1°
Maximum altitude 23:54:38 71° 114° (ESE) 581 4.2 -19.8°
Enters shadow 23:55:21 55° 54° (NE) 660 4.3 -19.9°
